Orbital Elements at Epoch 2459200.5 (2020-Dec-17.0) TDB
Reference: JPL 15 (heliocentric ecliptic J2000)
Element | Value | Uncertainty (1-sigma) | Units |
e | .6602009095571675 | 1.3457e-06 | |
a | .9588270593304672 | 8.0274e-08 | au |
q | .3258085626524685 | 1.2717e-06 | au |
i | 44.05125588287009 | 9.5231e-05 | deg |
node | 295.1084984469596 | 0.00031435 | deg |
peri | 97.89550478760168 | 0.00014896 | deg |
M | 2.536409639778288 | 0.00024643 | deg |
tp | 2459198.083839700767 (2020-Dec-14.58383970) | 0.00023448 | TDB |
period | 342.9326612242407 0.94 | 4.3066e-05 1.179e-07 | d yr |
n | 1.049768775930617 | 1.3183e-07 | deg/d |
Q | 1.591845556008466 | 1.3327e-07 | au |
|
| | Orbit Determination Parameters
Additional Information
|